National Oceanic Atmosphere Administration National Weather Service Headquarters National Weather Service Headquarters
NOAA logo WFO Anchorage Scalable transition graphic NWS logo
Transition from title bar to navgation bar   Aviation Weather 05 AKDT 
blankspace Home   |   Mobile   |   Social Media   |   Mesonet   |   Surface Map   |   Radar   |   Submit Storm Reports   |   News =13 GMT 

LocalForecast by City, St or Zip Code

spacer

Forecasts/Products
  Public
  Forecast Discussion
    - With Glossary
  Aviation
  Marine
  Hydrology(RFC)
  Rivers & Lakes AHPS
  Ice Desk
  TV Weather
  Fire Weather
  Avalanche
  Travel 511
  Graphical
  xml logo RSS Feeds
  Marine FTPMail

spacer

Data
  Mesonet
  Model Graphics
  Local Model
  Observations
  Marine Obs
  Satellite/Radar
  Vent Factor
  Soaring Index
  Weather Links

spacer

Climate
  PAFC Climate
  Interactive Climate
  PAFC Records
  Local
  National
  More

spacer

Outreach
  About Us
  Community Outreach
  Kids' Page
  Tour/Speaker Request
  Weather Classroom
  Social Media

spacer

Reports
  COOP Observers
  Local Storm Reports
  Spotter Page
  Submit a Storm Report

spacer

Miscellaneous
  Archived Alaska Weather Stories
  Student Career Opportunities
  Research Papers

spacer

Print Friendly/
Low Bandwidth

  Public Forecasts
  Marine Forecasts

spacer

Contact Us
  mailto pafcweb

spacer

Facebook Follow the National Weather Service in Alaska on Twitter
USA.gov is the U.S. government's official web portal to all federal, state and local government web resources and services.


** Important notice for upcoming changes to NWS Anchorage web site ** Read more...
 ICAO ID:   AAWU Graphics

Internet access to TAFs and METAR observations is for planning purposes only. We can not guarantee the timeliness of internet products. Before flying please get a formal pilot briefing (1-800-992-7433) and ALWAYS file a Flight Plan!Pilot briefings are provided to licensed aircraft pilots, ONLY! Others may not use the above number to obtain weather information.

Check out the Key to TAFs and METARs for help with decoding the information.

A 12 hour summary of TAFs can be found here.

PAKN TAF
PAKN 011145Z 0112/0212 20008KT P6SM SCT050 BKN090
     FM011600 22008KT P6SM BKN050
     FM012100 26009KT P6SM -RA OVC025
     FM020000 27014KT 3SM SHRA OVC015
     FM020800 23008KT 5SM -RA BR OVC025=


METAR PAKN 011254Z 18007KT 10SM SCT006 BKN085 OVC180 12/11 A2983 RMK
 AO2 SLP100 T01170106=
METAR PAKN 011254Z 18007KT 10SM SCT006 BKN085 OVC180 12/11 A2983=
SPECI PAKN 011221Z 21007KT 10SM FEW006 SCT090 OVC180 12/11 A2983 RMK
 AO2 T01220106=
PAKN 011221Z 21007KT 10SM FEW006 SCT090 OVC180 12/11 A2983=
METAR PAKN 011154Z 19005KT 10SM BKN085 12/11 A2985 RMK AO2 SLP106
 T01170106 10172 20117 58009=
METAR PAKN 011154Z 19005KT 10SM BKN085 12/11 A2985=
METAR PAKN 011054Z 20006KT 10SM BKN090 BKN250 12/11 A2986 RMK AO2 SLP110
     T01220111=
METAR PAKN 011054Z 20006KT 10SM BKN090 BKN250 12/11 A2986=
METAR PAKN 010954Z 18005KT 10SM SCT055 SCT080 BKN220 12/11 A2987 RMK AO2
     SLP113 T01220111=
METAR PAKN 010954Z 18005KT 10SM SCT055 SCT080 BKN220 12/11 A2987=


National Weather Service
Anchorage Forecast Office
6930 Sand Lake Road
Anchorage, Ak 99502
(907) 266-5105 M-F/7-5pm
About Us
Career Opportunities
Glossary
Disclaimer
Privacy Policy
Credits
Alaska Weather Information Line:
1-800-472-0391